Weather History for Palmer, AK

Change the Weather History Date:

Saturday, March 16, 2013

  Actual Average Record
Temperature  
Mean Temperature 19 °F -  
Max Temperature 28 °F 35 °F 47 °F (1981)
Min Temperature 10 °F 16 °F -21 °F (1961)
Degree Days  
Heating Degree Days 46    
Moisture  
Dew Point 3 °F    
Average Humidity 48    
Maximum Humidity 64    
Minimum Humidity 37    
Precipitation  
Precipitation 0.00 in - - ()
Sea Level Pressure  
Sea Level Pressure 29.98 in    
Wind  
Wind Speed 5 mph (North)    
Max Wind Speed 7 mph    
Max Gust Speed -    
Visibility 10 miles    
Events      
Averages and records for this station are not official NWS values.
T = Trace of Precipitation, MM = Missing Value Source: NWS Daily Summary

Daily Weather History Graph

Daily Weather History Graph

Search for Another Location

Airport:

Trip Planner

Search our weather history database for the weather conditions in past years. The results will help you decide how hot, cold, wet, or windy it might be!

Date:

Astronomy

Mar. 16, 2013 Rise Set
Actual Time 8:08 AM AKDT 8:02 PM AKDT
Civil Twilight 7:25 AM AKDT 8:45 PM AKDT
Nautical Twilight 6:33 AM AKDT 9:38 PM AKDT
Astronomical Twilight 5:37 AM AKDT 10:34 PM AKDT
Moon 9:14 AM AKDT (3/16) 1:51 AM AKDT (3/16)
Length of Visible Light 13h 20m
Length of Day
11h 53m
Waxing Crescent, 24% of the Moon is Illuminated
Mar 16
Waxing Crescent
Mar 19
First Quarter
Mar 27
Full
Apr 2
Last Quarter
Apr 10
New

Hourly Weather History & Observations

Time (AKDT) Temp. Windchill Dew Point Humidity Pressure Visibility Wind Dir Wind Speed Gust Speed Precip Events Conditions
12:53 AM 18.0 °F 9.8 °F -2.0 °F 41% 29.85 in 10.0 mi North 5.8 mph - N/A   Clear
1:53 AM 18.0 °F 11.1 °F -2.0 °F 41% 29.87 in 10.0 mi North 4.6 mph - N/A   Clear
2:53 AM 16.0 °F 7.4 °F -2.0 °F 45% 29.87 in 10.0 mi NNW 5.8 mph - N/A   Clear
3:53 AM 17.1 °F 8.7 °F -2.9 °F 41% 29.88 in 10.0 mi North 5.8 mph - N/A   Clear
4:53 AM 16.0 °F 6.3 °F -2.9 °F 43% 29.89 in 10.0 mi North 6.9 mph - N/A   Clear
5:53 AM 17.1 °F 7.6 °F -4.0 °F 39% 29.91 in 10.0 mi North 6.9 mph - N/A   Clear
6:53 AM 15.1 °F 6.4 °F -4.0 °F 43% 29.94 in 10.0 mi North 5.8 mph - N/A   Clear
7:53 AM 16.0 °F 6.3 °F -4.0 °F 41% 29.94 in 10.0 mi North 6.9 mph - N/A   Clear
8:53 AM 10.0 °F -0.9 °F -0.0 °F 64% 29.95 in 10.0 mi North 6.9 mph - N/A   Clear
9:53 AM 12.9 °F - -0.0 °F 56% 29.97 in 10.0 mi Calm Calm - N/A   Clear
10:53 AM 16.0 °F - 3.9 °F 59% 29.99 in 10.0 mi Calm Calm - N/A   Overcast
11:53 AM 17.1 °F - 5.0 °F 59% 30.00 in 10.0 mi Calm Calm - N/A   Mostly Cloudy
12:53 PM 19.0 °F 12.3 °F 7.0 °F 59% 30.01 in 10.0 mi SE 4.6 mph - N/A   Mostly Cloudy
1:53 PM 21.9 °F 17.2 °F 7.0 °F 53% 30.03 in 10.0 mi ESE 3.5 mph - N/A   Overcast
2:53 PM 25.0 °F - 6.1 °F 45% 30.03 in 10.0 mi Calm Calm - N/A   Mostly Cloudy
3:53 PM 26.1 °F 21.9 °F 5.0 °F 41% 30.02 in 10.0 mi South 3.5 mph - N/A   Mostly Cloudy
4:53 PM 28.0 °F 24.2 °F 8.1 °F 43% 30.03 in 10.0 mi SSE 3.5 mph - N/A   Mostly Cloudy
5:53 PM 28.0 °F - 10.9 °F 49% 30.03 in 10.0 mi Calm Calm - N/A   Mostly Cloudy
6:53 PM 28.0 °F 22.8 °F 10.9 °F 49% 30.04 in 10.0 mi SE 4.6 mph - N/A   Partly Cloudy
7:53 PM 27.0 °F 23.0 °F 3.9 °F 37% 30.05 in 10.0 mi South 3.5 mph - N/A   Clear
8:53 PM 23.0 °F - 7.0 °F 50% 30.06 in 10.0 mi Calm Calm - N/A   Clear
9:53 PM 21.0 °F 16.2 °F 8.1 °F 57% 30.08 in 10.0 mi North 3.5 mph - N/A   Mostly Cloudy
10:53 PM 19.9 °F 12.1 °F 5.0 °F 52% 30.08 in 10.0 mi North 5.8 mph - N/A   Scattered Clouds
11:53 PM 19.0 °F 12.3 °F 3.9 °F 52% 30.09 in 10.0 mi North 4.6 mph - N/A   Partly Cloudy